Cloud_Cover
72 58 1 0 11 98 87 2 6 0 0 0 0 0 0 0 0 0 0 0 0 0 12 63 60 61 83 99 91 52 24 0 78 100 100 100 100 76 63 0 0 28 100
99 14 6 5 4 100 100 51 4 0 0 0 0 0 0 0 0 0 0 0 0 18 94 50 42 61 94 32 20 23 5 0 0 17 22 21 31 100 100 40 23 17 95
53 16 8 11 40 66 100 29 1 0 0 0 0 0 0 0 0 0 0 0 0 100 100 73 77 100 38 11 14 2 0 0 0 0 0 0 54 100 57 21 99 100 65
82 18 59 82 59 5 71 9 1 3 0 4 0 0 0 0 0 0 0 0 11 100 42 92 98 85 12 3 3 0 0 0 0 0 0 22 100 100 100 67 94 100 99
45 86 80 84 30 12 20 5 5 5 0 5 0 0 0 0 0 0 0 0 2 42 94 100 84 62 6 10 1 0 0 0 0 0 0 3 76 100 100 100 100 100 100
96 100 42 100 55 59 13 5 5 5 5 5 3 0 0 1 0 0 0 0 17 100 100 30 5 5 7 6 0 0 0 0 0 0 95 100 100 100 100 64 100 100 100
90 78 81 100 88 45 82 24 5 5 35 5 5 5 0 0 0 0 0 0 22 100 78 12 3 4 0 0 0 0 0 0 0 47 91 100 100 100 100 96 100 44 99
100 100 69 100 94 62 100 58 42 5 8 17 37 5 0 0 0 0 0 0 90 100 54 59 51 12 0 0 0 0 0 0 0 9 46 100 100 100 100 100 100 100 100
100 100 73 86 100 33 22 84 83 26 5 44 100 5 5 4 4 5 4 2 100 100 96 80 28 0 0 0 0 0 0 36 30 0 8 100 97 100 100 82 100 100 100
100 100 100 98 99 100 44 94 100 100 100 98 94 44 7 6 5 4 6 52 100 100 60 76 54 0 0 0 0 0 0 94 0 41 98 96 96 79 100 58 100 100 100
100 100 100 100 100 73 100 93 98 99 100 100 100 90 95 79 81 100 44 89 99 6 51 99 18 0 0 0 0 0 0 1 16 94 98 98 42 100 94 99 46 62 100
100 100 100 100 100 100 100 69 97 33 100 100 96 100 98 93 99 100 100 96 54 51 10 1 0 0 0 0 0 0 0 29 89 31 80 100 65 100 100 100 100 100 100
100 100 100 96 100 100 35 100 76 82 100 100 95 21 78 100 100 100 100 99 87 12 5 5 3 3 0 0 0 0 1 10 25 100 97 99 100 100 100 99 20 44 0
100 100 100 100 95 100 88 91 100 100 100 100 83 28 82 78 72 100 99 94 84 82 5 5 5 4 0 0 0 0 5 1 7 100 79 94 34 100 99 100 14 94 100
100 100 100 100 100 100 100 95 100 100 100 100 100 44 100 100 84 100 94 99 100 6 5 5 5 5 0 0 0 2 0 0 0 6 73 70 66 98 100 100 10 100 66
100 100 100 100 100 100 97 87 81 99 100 100 77 72 100 82 100 100 100 99 40 10 5 5 5 5 5 4 0 0 3 5 0 5 1 25 10 3 60 15 53 100 100
100 100 100 100 100 100 100 100 100 100 81 100 27 100 100 100 100 100 100 93 39 23 5 5 5 5 5 5 2 2 8 99 3 0 5 4 3 3 39 100 93 1 81
100 100 100 100 100 100 100 100 100 100 100 99 99 100 100 99 100 100 100 97 52 32 25 13 24 8 5 5 1 3 5 100 65 5 5 5 5 0 4 100 100 13 27
100 100 100 100 100 100 100 100 100 100 100 98 100 100 100 100 100 100 90 100 92 49 53 12 36 28 25 5 27 5 22 100 5 17 20 5 1 0 0 64 9 4 19
100 100 100 100 100 100 100 100 100 100 100 100 100 100 100 100 100 100 85 100 100 78 48 23 76 86 100 62 18 18 51 100 8 98 36 7 0 2 1 0 5 5 5
100 100 100 100 100 100 100 100 100 100 100 100 100 100 100 100 100 100 86 97 100 98 97 64 81 100 100 93 54 99 100 100 78 96 53 33 0 4 4 0 4 0 0
100 100 100 100 100 100 100 100 100 100 100 100 100 100 94 100 100 96 93 100 99 69 100 100 100 100 100 62 73 100 100 100 100 78 5 5 0 0 0 0 0 0 0
100 100 100 100 100 100 100 100 100 100 100 100 100 100 100 100 100 100 99 96 84 100 99 100 100 100 100 100 100 100 100 100 100 5 5 5 5 0 2 0 0 0 0
77 85 100 100 100 100 100 100 100 100 100 100 100 100 79 94 100 100 100 100 100 100 100 100 100 100 81 96 100 100 100 100 100 6 5 5 5 5 4 4 2 5 4
2 100 99 100 100 100 100 100 100 100 100 100 100 88 100 100 100 100 100 97 82 100 100 86 100 100 100 100 100 100 100 100 67 5 0 5 4 5 5 2 5 5 3
0 28 100 100 100 100 100 100 100 100 100 100 100 100 100 100 100 100 100 100 100 100 100 93 99 90 100 100 100 98 100 35 5 5 5 5 5 5 5 5 5 5 0